Dyersburg, TN

2:43 AM CST on December 11, 2019 (GMT -0600)
Dyersburg Municipal

Weather History for KDYR - October, 2019

Change the Weather History Date:

Sunday, October 27, 2019

  Actual Average Record
Temperature  
Mean Temperature 55 °F -  
Max Temperature 57 °F 66 °F 82 °F (2014)
Min Temperature 53 °F 47 °F 35 °F (1997)
Degree Days  
Heating Degree Days 10    
Growing Degree Days 5 (Base 50)    
Moisture  
Dew Point 54 °F    
Average Humidity 97    
Maximum Humidity 100    
Minimum Humidity 89    
Precipitation  
Precipitation 0.01 in - - ()
Sea Level Pressure  
Sea Level Pressure 30.02 in    
Wind  
Wind Speed 3 mph ()    
Max Wind Speed 8 mph    
Max Gust Speed -    
Visibility 8.2 miles    
Events Rain    
Averages and records for this station are not official NWS values.
T = Trace of Precipitation, MM = Missing Value Source: Averaged Metar Reports

Daily Weather History Graph

Daily Weather History Graph

Search for Another Location

Airport or City:

Astronomy

Oct. 27, 2019 Rise Set
Actual Time 7:15 AM CDT 6:07 PM CDT
Civil Twilight 6:48 AM CDT 6:33 PM CDT
Nautical Twilight 6:18 AM CDT 7:03 PM CDT
Astronomical Twilight 5:48 AM CDT 7:33 PM CDT
Moon 6:27 AM CDT (10/27) 6:14 PM CDT (10/27)
Length of Visible Light 11h 44m
Length of Day
10h 52m
Waning Crescent, 0% of the Moon is Illuminated
Oct 27
Waning Crescent
Oct 27
New
Nov 4
First Quarter
Nov 12
Full
Nov 19
Last Quarter

Hourly Weather History & Observations

Time (CDT) Temp. Dew Point Humidity Pressure Visibility Wind Dir Wind Speed Gust Speed Precip Events Conditions
12:19 AM 55.4 °F 55.4 °F 100% 29.87 in 4.0 mi WSW 5.8 mph - 0.00 in Rain Light Rain
12:44 AM 55.4 °F 55.4 °F 100% 29.88 in 6.0 mi WSW 8.1 mph - 0.00 in Rain Light Rain
12:56 AM 55.0 °F 55.0 °F 100% 29.90 in 6.0 mi West 4.6 mph - 0.00 in Rain Light Rain
1:19 AM 55.4 °F 53.6 °F 94% 29.89 in 10.0 mi WSW 4.6 mph - 0.00 in   Overcast
1:46 AM 55.4 °F 53.6 °F 94% 29.89 in 10.0 mi West 4.6 mph - 0.00 in   Overcast
1:56 AM 55.0 °F 54.0 °F 96% 29.91 in 10.0 mi West 4.6 mph - 0.00 in   Overcast
2:56 AM 54.0 °F 54.0 °F 100% 29.93 in 10.0 mi West 4.6 mph - N/A   Overcast
3:56 AM 54.0 °F 54.0 °F 100% 29.94 in 10.0 mi NW 3.5 mph - N/A   Overcast
4:45 AM 53.6 °F 53.6 °F 100% 29.94 in 10.0 mi Calm Calm - N/A   Overcast
4:56 AM 54.0 °F 53.1 °F 97% 29.96 in 10.0 mi WNW 3.5 mph - N/A   Overcast
5:56 AM 54.0 °F 54.0 °F 100% 29.99 in 10.0 mi Calm Calm - N/A   Overcast
6:25 AM 53.6 °F 53.6 °F 100% 29.97 in 10.0 mi Calm Calm - N/A   Overcast
6:56 AM 54.0 °F 53.1 °F 97% 30.00 in 10.0 mi Calm Calm - N/A   Overcast
7:41 AM 53.6 °F 53.6 °F 100% 30.00 in 4.0 mi NNW 3.5 mph - N/A   Overcast
7:56 AM 53.1 °F 53.1 °F 100% 30.03 in 4.0 mi NNW 3.5 mph - N/A   Overcast
8:15 AM 53.6 °F 53.6 °F 100% 30.02 in 2.5 mi North 3.5 mph - N/A   Overcast
8:26 AM 53.6 °F 53.6 °F 100% 30.02 in 3.0 mi Calm Calm - 0.00 in Rain Light Rain
8:39 AM 53.6 °F 53.6 °F 100% 30.03 in 2.0 mi NNE 3.5 mph - 0.00 in   Overcast
8:56 AM 53.1 °F 53.1 °F 100% 30.06 in 3.0 mi North 3.5 mph - 0.00 in   Overcast
9:31 AM 53.6 °F 53.6 °F 100% 30.05 in 4.0 mi North 3.5 mph - N/A   Overcast
9:54 AM 53.6 °F 53.6 °F 100% 30.05 in 9.0 mi Calm Calm - N/A   Overcast
9:56 AM 54.0 °F 53.1 °F 97% 30.07 in 10.0 mi Calm Calm - N/A   Overcast
10:56 AM 54.0 °F 53.1 °F 97% 30.09 in 10.0 mi West 3.5 mph - N/A   Overcast
11:56 AM 55.0 °F 54.0 °F 96% 30.09 in 10.0 mi Calm Calm - N/A   Overcast
12:56 PM 55.9 °F 54.0 °F 93% 30.08 in 10.0 mi SE 4.6 mph - N/A   Overcast
1:56 PM 55.9 °F 54.0 °F 93% 30.08 in 10.0 mi SSW 3.5 mph - N/A   Overcast
2:56 PM 57.0 °F 54.0 °F 89% 30.07 in 10.0 mi SSE 3.5 mph - N/A   Overcast
3:56 PM 57.0 °F 54.0 °F 89% 30.08 in 10.0 mi Variable 3.5 mph - N/A   Overcast
4:15 PM 57.2 °F 55.4 °F 94% 30.06 in 10.0 mi SSE 3.5 mph - N/A   Overcast
4:56 PM 57.0 °F 54.0 °F 89% 30.07 in 10.0 mi SSE 4.6 mph - N/A   Overcast
5:56 PM 55.9 °F 54.0 °F 93% 30.08 in 10.0 mi Variable 3.5 mph - N/A   Overcast
6:05 PM 55.4 °F 53.6 °F 94% 30.06 in 10.0 mi South 4.6 mph - N/A   Overcast
6:56 PM 55.0 °F 54.0 °F 96% 30.08 in 10.0 mi SSE 4.6 mph - N/A   Overcast
7:56 PM 55.0 °F 54.0 °F 96% 30.09 in 10.0 mi Calm Calm - N/A   Overcast
8:56 PM 55.0 °F 54.0 °F 96% 30.10 in 10.0 mi Calm Calm - N/A   Overcast
9:56 PM 55.0 °F 55.0 °F 100% 30.12 in 5.0 mi Calm Calm - 0.00 in Rain Light Rain
10:56 PM 55.0 °F 55.0 °F 100% 30.11 in 10.0 mi Calm Calm - 0.01 in   Overcast
11:56 PM 55.0 °F 55.0 °F 100% 30.10 in 10.0 mi Calm Calm - N/A   Overcast